Showing default

GALILEO 15 (267), 41859

Orbit data source: Space-Track

GALILEO 15 (267), 41859 is a payload satellite owned by GNSS Agency (ESA) that was launched on Thu, 17 Nov 2016 UTC via an ARIANE 5ES launch vehicle from the French Guiana (FRGUI). Payload-class satellites include a variety of spacecraft equipped with specific instruments for various scientific and technological missions. These include communications satellites like Starlink; space stations such as the ISS; scientific satellites like the Hubble; Earth observation satellites from companies like Planet Labs, Umbra, and HawkEye 360; GPS; miniature CubeSats for education and research; and military/defense satellites.

Loading next visibility...
Identifier
41859, 2016-069A
Orbit
Active
Country
Flag of ESAESA
Related business
Manufacturer
OHB
Mission
Operational Civil Navigation
Bus & Motor
GALILEOSAT, AOCS
Mass
738 kg wet, 700 kg dry
Launch date (UTC)
2016-11-17 (10 years ago)
Launch vehicle
ARIANE 5ES
Launch site
French Guiana (FRGUI)
Object type
Payload
Rocket body
Debris
Shape & HBR
Box + 2 Pan, 7.3 m
Radar Cross Section
9.223 m², Large (>1 m²)

Expand to show TLE details & history
Last TLE update: 2 days ago

TLE from 2 days ago
0 GALILEO 15 (267)
1 41859U 16069A   26254.56034714  .00000015  00000-0  00000-0 0  9994
2 41859  55.5533  98.6945 0003037 359.7632   0.3287  1.70473750 60879
Epoch: 2026-09-11T13:26Z
TLE epoch observation values (Epoch: 2026-09-11T13:26:53.992Z)
Latitude
Longitude
-93.60257°
Altitude
23,213.514 km
Speed
3.671 km/s
True Right ascension
06h 34m 49s
True Declination
0° 00' 00"
Sunlit
Object was in daylight at epoch
Visualization orbit readout
Latitude
Unknown
Longitude
Unknown
Altitude
Unknown
Speed
Unknown
Apparent Right ascension
Unknown
Apparent Declination
Unknown
Sunlit
N/A
Visualization observer readout
Local Sidereal Time
07:56:24
Azimuth
Unknown
Elevation
Unknown
Doppler factor
Unknown
Orbital elements
Apogee altitude
23,231.19 km
Perigee altitude
23,213.211 km
Semi-major axis
29,600.337 km
Eccentricity
0.0003
Inclination
55.5533°
RAAN
98.6945°
Arg. of periapsis
359.7632°
True anomaly
0.3289°
Mean anomaly
0.3287°
Eccentric anomaly
0.3288°
Mean motion
0.42619 °/min
Orbital period
844.7 mins
BSTAR
0
Loading maneuver chart data...
Computing Atmospheric mass density...
Loading historical data...
Loading historical data...
Loading historical data...
Loading historical data...
Loading historical data...
Loading historical data...
Loading historical data...
Other satellites on launch #69 in the year 2016 (2016-11-17 UTC)

Documentation

Showing up to 5 results
|